Estación de Illapel
Ultimos registro cada 15 minutos 92
| N° | Estación | Fecha / Hora | Temperatura | Humedad | Lluvia | Velocidad | Dirección | Radiación | Presion |
| 92 | Illapel | 07-05-2026 22:45 | 9,9 | 61 | 0 | 0 | 232 | 0 | 1003,8 |
| 91 | Illapel | 07-05-2026 22:30 | 9,7 | 63 | 0 | 0,9 | 252 | 0 | 1003,8 |
| 90 | Illapel | 07-05-2026 22:15 | 9,6 | 63 | 0 | 0 | 253 | 0 | 1003,8 |
| 89 | Illapel | 07-05-2026 22:00 | 9,9 | 63 | 0 | 0 | 237 | 0 | 1003,8 |
| 88 | Illapel | 07-05-2026 21:45 | 10,3 | 62 | 0 | 0 | 237 | 0 | 1003,8 |
| 87 | Illapel | 07-05-2026 21:30 | 10,6 | 62 | 0 | 0 | 237 | 0 | 1003,8 |
| 86 | Illapel | 07-05-2026 21:15 | 10,8 | 62 | 0 | 0 | 238 | 0 | 1003,8 |
| 85 | Illapel | 07-05-2026 21:00 | 11,3 | 61 | 0 | 0 | 238 | 0 | 1003,8 |
| 84 | Illapel | 07-05-2026 20:45 | 11,7 | 60 | 0 | 0 | 238 | 0 | 1003,8 |
| 83 | Illapel | 07-05-2026 20:30 | 11,8 | 60 | 0 | 0,9 | 239 | 0 | 1003,8 |
| 82 | Illapel | 07-05-2026 20:15 | 12,1 | 59 | 0 | 0,4 | 235 | 0 | 1003,8 |
| 81 | Illapel | 07-05-2026 20:00 | 12,4 | 59 | 0 | 0 | 235 | 0 | 1003,8 |
| 80 | Illapel | 07-05-2026 19:45 | 13 | 57 | 0 | 0 | 235 | 0 | 1003,8 |
| 79 | Illapel | 07-05-2026 19:30 | 13,3 | 57 | 0 | 0 | 235 | 0 | 1003,8 |
| 78 | Illapel | 07-05-2026 19:15 | 13,4 | 56 | 0 | 0 | 235 | 0 | 1003,8 |
| 77 | Illapel | 07-05-2026 19:00 | 13,7 | 56 | 0 | 0,9 | 240 | 0 | 1003,8 |
| 76 | Illapel | 07-05-2026 18:45 | 13,9 | 56 | 0 | 0 | 248 | 0 | 1003,8 |
| 75 | Illapel | 07-05-2026 18:30 | 14,3 | 55 | 0 | 0,9 | 269 | 0 | 1003,8 |
| 74 | Illapel | 07-05-2026 18:15 | 14,9 | 54 | 0 | 0,9 | 262 | 0 | 1003,8 |
| 73 | Illapel | 07-05-2026 18:00 | 15,5 | 52 | 0 | 1,8 | 301 | 0 | 1003,8 |
| 72 | Illapel | 07-05-2026 17:45 | 16,2 | 50 | 0 | 0 | 321 | 7 | 1003,8 |
| 71 | Illapel | 07-05-2026 17:30 | 16,8 | 47 | 0 | 0,9 | 304 | 12 | 1003,8 |
| 70 | Illapel | 07-05-2026 17:15 | 17,6 | 46 | 0 | 0,9 | 344 | 16 | 1003,8 |
| 69 | Illapel | 07-05-2026 17:00 | 18,2 | 44 | 0 | 3,1 | 312 | 23 | 1003,8 |
| 68 | Illapel | 07-05-2026 16:45 | 18,8 | 42 | 0 | 2,7 | 321 | 123 | 1003,8 |
| 67 | Illapel | 07-05-2026 16:30 | 19,3 | 40 | 0 | 1,3 | 6 | 218 | 1003,8 |
| 66 | Illapel | 07-05-2026 16:15 | 20 | 39 | 0 | 2,7 | 325 | 255 | 1003,8 |
| 65 | Illapel | 07-05-2026 16:00 | 20,2 | 39 | 0 | 4,5 | 317 | 299 | 1003,8 |
| 64 | Illapel | 07-05-2026 15:45 | 20,6 | 37 | 0 | 1,8 | 357 | 334 | 1003,8 |
| 63 | Illapel | 07-05-2026 15:30 | 20,5 | 39 | 0 | 0,9 | 312 | 376 | 1003,8 |
| 62 | Illapel | 07-05-2026 15:15 | 20,6 | 38 | 0 | 1,8 | 298 | 413 | 1003,8 |
| 61 | Illapel | 07-05-2026 15:00 | 20,8 | 38 | 0 | 2,2 | 315 | 446 | 1003,8 |
| 60 | Illapel | 07-05-2026 14:45 | 20,9 | 39 | 0 | 3,6 | 319 | 482 | 1003,8 |
| 59 | Illapel | 07-05-2026 14:30 | 20,8 | 40 | 0 | 2,2 | 314 | 504 | 1003,8 |
| 58 | Illapel | 07-05-2026 14:15 | 20,8 | 40 | 0 | 2,7 | 313 | 533 | 1003,8 |
| 57 | Illapel | 07-05-2026 14:00 | 20,6 | 41 | 0 | 2,2 | 325 | 552 | 1003,8 |
| 56 | Illapel | 07-05-2026 13:45 | 20,4 | 42 | 0 | 0,4 | 308 | 571 | 1003,8 |
| 55 | Illapel | 07-05-2026 13:30 | 20,3 | 42 | 0 | 2,2 | 358 | 142 | 1003,8 |
| 54 | Illapel | 07-05-2026 13:15 | 20,5 | 42 | 0 | 3,6 | 360 | 30 | 1003,8 |
| 53 | Illapel | 07-05-2026 13:00 | 20,3 | 43 | 0 | 3,1 | 302 | 30 | 1003,8 |
| 52 | Illapel | 07-05-2026 12:45 | 19,9 | 44 | 0 | 1,8 | 355 | 28 | 1003,8 |
| 51 | Illapel | 07-05-2026 12:30 | 20 | 44 | 0 | 1,3 | 6 | 28 | 1003,8 |
| 50 | Illapel | 07-05-2026 12:15 | 19,5 | 45 | 0 | 1,8 | 351 | 26 | 1003,8 |
| 49 | Illapel | 07-05-2026 12:00 | 18,8 | 47 | 0 | 0 | 358 | 28 | 1003,8 |
| 48 | Illapel | 07-05-2026 11:45 | 18,8 | 48 | 0 | 2,2 | 309 | 28 | 1003,8 |
| 47 | Illapel | 07-05-2026 11:30 | 18,6 | 49 | 0 | 1,8 | 7 | 28 | 1003,8 |
| 46 | Illapel | 07-05-2026 11:15 | 18,1 | 51 | 0 | 2,2 | 316 | 478 | 1003,8 |
| 45 | Illapel | 07-05-2026 11:00 | 17,7 | 51 | 0 | 2,2 | 27 | 424 | 1003,8 |
| 44 | Illapel | 07-05-2026 10:45 | 17,4 | 52 | 0 | 0,4 | 348 | 504 | 1003,8 |
| 43 | Illapel | 07-05-2026 10:30 | 16,9 | 54 | 0 | 0,4 | 328 | 464 | 1003,8 |
| 42 | Illapel | 07-05-2026 10:15 | 16,6 | 54 | 0 | 0 | 353 | 445 | 1003,8 |
| 41 | Illapel | 07-05-2026 10:00 | 16,1 | 55 | 0 | 0 | 330 | 411 | 1003,8 |
| 40 | Illapel | 07-05-2026 09:45 | 14,9 | 55 | 0 | 0 | 309 | 299 | 1003,8 |
| 39 | Illapel | 07-05-2026 09:30 | 13,9 | 55 | 0 | 0 | 260 | 236 | 1003,8 |
| 38 | Illapel | 07-05-2026 09:15 | 13,5 | 56 | 0 | 0 | 258 | 95 | 1003,8 |
| 37 | Illapel | 07-05-2026 09:00 | 13,2 | 57 | 0 | 0 | 254 | 109 | 1003,8 |
| 36 | Illapel | 07-05-2026 08:45 | 12,7 | 58 | 0 | 0 | 253 | 97 | 1003,8 |
| 35 | Illapel | 07-05-2026 08:30 | 12,3 | 59 | 0 | 0 | 253 | 72 | 1003,8 |
| 34 | Illapel | 07-05-2026 08:15 | 12 | 59 | 0 | 0 | 253 | 56 | 1003,8 |
| 33 | Illapel | 07-05-2026 08:00 | 11,8 | 59 | 0 | 0 | 253 | 37 | 1003,8 |
| 32 | Illapel | 07-05-2026 07:45 | 11,7 | 59 | 0 | 0 | 253 | 21 | 1003,8 |
| 31 | Illapel | 07-05-2026 07:30 | 11,7 | 59 | 0 | 0 | 253 | 0 | 1003,8 |
| 30 | Illapel | 07-05-2026 07:15 | 11,6 | 59 | 0 | 0 | 253 | 0 | 1003,8 |
| 29 | Illapel | 07-05-2026 07:00 | 11,5 | 59 | 0 | 0 | 253 | 0 | 1003,8 |
| 28 | Illapel | 07-05-2026 06:45 | 11,6 | 58 | 0 | 0 | 253 | 0 | 1003,8 |
| 27 | Illapel | 07-05-2026 06:30 | 11,8 | 58 | 0 | 0 | 253 | 0 | 1003,8 |
| 26 | Illapel | 07-05-2026 06:15 | 11,9 | 58 | 0 | 0 | 248 | 0 | 1003,8 |
| 25 | Illapel | 07-05-2026 06:00 | 12 | 58 | 0 | 0 | 249 | 0 | 1003,8 |
| 24 | Illapel | 07-05-2026 05:45 | 12,1 | 58 | 0 | 0 | 248 | 0 | 1003,8 |
| 23 | Illapel | 07-05-2026 05:30 | 12,1 | 58 | 0 | 0 | 248 | 0 | 1003,8 |
| 22 | Illapel | 07-05-2026 05:15 | 12,1 | 58 | 0 | 0,9 | 253 | 0 | 1003,8 |
| 21 | Illapel | 07-05-2026 05:00 | 12,1 | 58 | 0 | 0 | 257 | 0 | 1003,8 |
| 20 | Illapel | 07-05-2026 04:45 | 12,2 | 58 | 0 | 0 | 281 | 0 | 1003,8 |
| 19 | Illapel | 07-05-2026 04:30 | 12,4 | 57 | 0 | 0 | 293 | 0 | 1003,8 |
| 18 | Illapel | 07-05-2026 04:15 | 12,6 | 57 | 0 | 0,9 | 297 | 0 | 1003,8 |
| 17 | Illapel | 07-05-2026 04:00 | 12,8 | 57 | 0 | 0 | 298 | 0 | 1003,8 |
| 16 | Illapel | 07-05-2026 03:45 | 12,9 | 57 | 0 | 0 | 328 | 0 | 1003,8 |
| 15 | Illapel | 07-05-2026 03:30 | 12,8 | 58 | 0 | 0 | 328 | 0 | 1003,8 |
| 14 | Illapel | 07-05-2026 03:15 | 12,8 | 58 | 0 | 0 | 325 | 0 | 1003,8 |
| 13 | Illapel | 07-05-2026 03:00 | 12,9 | 57 | 0 | 2,7 | 319 | 0 | 1003,8 |
| 12 | Illapel | 07-05-2026 02:45 | 13,3 | 56 | 0 | 1,3 | 254 | 0 | 1003,8 |
| 11 | Illapel | 07-05-2026 02:30 | 13,7 | 56 | 0 | 0 | 310 | 0 | 1003,8 |
| 10 | Illapel | 07-05-2026 02:15 | 13,8 | 56 | 0 | 0 | 323 | 0 | 1003,8 |
| 9 | Illapel | 07-05-2026 02:00 | 14 | 56 | 0 | 0 | 321 | 0 | 1003,8 |
| 8 | Illapel | 07-05-2026 01:45 | 14,1 | 56 | 0 | 0 | 317 | 0 | 1003,8 |
| 7 | Illapel | 07-05-2026 01:30 | 14,1 | 56 | 0 | 0 | 353 | 0 | 1003,8 |
| 6 | Illapel | 07-05-2026 01:15 | 14 | 57 | 0 | 0 | 350 | 0 | 1003,8 |
| 5 | Illapel | 07-05-2026 01:00 | 14,1 | 58 | 0 | 0 | 327 | 0 | 1003,8 |
| 4 | Illapel | 07-05-2026 00:45 | 14,3 | 58 | 0 | 0 | 296 | 0 | 1003,8 |
| 3 | Illapel | 07-05-2026 00:30 | 14,6 | 57 | 0 | 0,4 | 323 | 0 | 1003,8 |
| 2 | Illapel | 07-05-2026 00:15 | 14,6 | 57 | 0 | 0 | 323 | 0 | 1003,8 |
| 1 | Illapel | 07-05-2026 00:00 | 14,7 | 57 | 0 | 0 | 322 | 0 | 1003,8 |